This is the latest recevied weather packets stored in our database for station/object HS3PIK-2. If no packets are shown the sender has not sent any weather packets the latest 10 day(s).
| Time | Temp. | Humidity | Pressure | Rain* | Wind** | Luminosity | Snow |
|---|---|---|---|---|---|---|---|
| 1777885680 | 29.44° C | 74% | - | - | - | 0 W/m² | - |
| 1777885353 | 29.44° C | 75% | - | - | - | 0 W/m² | - |
| 1777885227 | 28.89° C | 75% | - | - | - | 0 W/m² | - |
| 1777884868 | 29.44° C | 76% | - | - | - | 0 W/m² | - |
| 1777884828 | 29.44° C | 75% | - | - | - | 0 W/m² | - |
| 1777884060 | 30° C | 77% | - | - | - | 0 W/m² | - |
| 1777883730 | 29.44° C | 79% | - | - | - | 0 W/m² | - |
| 1777883388 | 28.89° C | 79% | - | - | - | 0 W/m² | - |
| 1777882072 | 29.44° C | 74% | - | - | - | 0 W/m² | - |
| 1777881742 | 29.44° C | 75% | - | - | - | 0 W/m² | - |
| 1777881412 | 29.44° C | 77% | - | - | - | 0 W/m² | - |
| 1777881087 | 29.44° C | 74% | - | - | - | 0 W/m² | - |
| 1777880755 | 31.11° C | 71% | - | - | - | 0 W/m² | - |
| 1777880425 | 31.67° C | 67% | - | - | - | 0 W/m² | - |
| 1777880095 | 32.22° C | 66% | - | - | - | 0 W/m² | - |
| 1777879767 | 32.78° C | 65% | - | - | - | 0 W/m² | - |
| 1777879435 | 32.78° C | 64% | - | - | - | 0 W/m² | - |
| 1777879105 | 32.78° C | 66% | - | - | - | 0 W/m² | - |
| 1777878777 | 32.78° C | 67% | - | - | - | 0 W/m² | - |
| 1777878453 | 32.78° C | 71% | - | - | - | 0 W/m² | - |
| 1777878125 | 32.78° C | 73% | - | - | - | 0 W/m² | - |
| 1777877798 | 32.22° C | 71% | - | - | - | 0 W/m² | - |
| 1777877468 | 31.67° C | 70% | - | - | - | 0 W/m² | - |
| 1777877138 | 32.22° C | 69% | - | - | - | 0 W/m² | - |
| 1777876805 | 33.89° C | 64% | - | - | - | 0 W/m² | - |
* Rain since midnight (hover to see other rain measurements)
** Current wind speed in m/s (hover to see current wind gust speed)